Location: Newark
(5.8900°S, 42.6378°W)
Time: 02:40:11
(UTC+00:00)

Vanguard 2 Rocket - All Passes

Search period start: 24 October 2019 00:00
Search period end: 03 November 2019 00:00
Orbit: 553 x 3327 km, 32.9° (Epoch: 23 October)

Date Brightness Start Highest point End Pass type
(mag) Time Alt. Az. Time Alt. Az. Time Alt. Az.
24 Oct - 05:57:13 10° SW 06:03:27 58° SE 06:14:32 10° ENE visible
24 Oct - 08:10:05 10° W 08:18:39 44° NNW 08:33:06 10° NE daylight
24 Oct - 10:28:50 10° WNW 10:37:58 19° NNW 10:49:32 10° NNE daylight
24 Oct - 12:57:36 10° NNW 13:02:23 11° N 13:07:13 10° NNE daylight
24 Oct - 15:17:31 10° NNW 15:27:45 16° NNE 15:36:25 10° NE daylight
24 Oct - 17:33:45 10° NNW 17:48:12 36° NNE 17:57:18 10° E daylight
24 Oct - 19:51:42 10° WNW 20:04:20 80° SW 20:11:10 10° SE daylight
24 Oct - 22:13:46 10° WSW 22:17:39 15° SW 22:20:45 10° S visible
25 Oct - 04:58:54 10° SSW 05:03:54 33° SE 05:11:43 10° E visible
25 Oct - 07:10:27 10° WSW 07:17:48 59° NNW 07:31:03 10° NE visible
25 Oct - 09:26:43 10° WNW 09:35:29 23° NNW 09:47:45 10° NNE daylight
25 Oct - 11:52:22 10° NNW 11:58:03 12° N 12:04:07 10° NNE daylight
25 Oct - 14:15:44 10° NNW 14:24:04 14° NNE 14:31:49 10° NE daylight
25 Oct - 16:31:51 10° NNW 16:46:21 29° NNE 16:56:28 10° E daylight
25 Oct - 18:49:12 10° NW 19:04:01 72° NNE 19:12:07 10° ESE daylight
25 Oct - 21:09:46 10° W 21:18:03 29° SW 21:23:23 10° SSE visible
26 Oct - 04:01:20 10° S 04:04:29 16° SE 04:08:27 10° ESE visible
26 Oct - 06:11:19 10° WSW 06:17:34 85° NNW 06:28:58 10° NE visible
26 Oct - 08:25:42 10° W 08:33:42 29° NNW 08:46:00 10° NNE daylight
26 Oct - 10:47:46 10° NW 10:54:18 13° NNW 11:01:49 10° NNE daylight
26 Oct - 13:13:59 10° N 13:19:49 12° N 13:25:37 10° NNE daylight
26 Oct - 15:30:06 10° NNW 15:43:50 23° NNE 15:54:34 10° ENE daylight
26 Oct - 17:46:51 10° NW 18:03:05 54° NNE 18:12:35 10° ESE daylight
26 Oct - 20:06:24 10° WNW 20:18:21 51° SW 20:25:08 10° SE daylight
27 Oct - 05:12:37 10° SW 05:17:53 58° SE 05:26:52 10° ENE visible
27 Oct - 07:25:30 10° W 07:32:34 37° NNW 07:44:19 10° NE visible
27 Oct - 09:44:27 10° NW 09:51:20 16° NNW 09:59:55 10° NNE daylight
27 Oct - 12:12:15 10° N 12:15:22 10° N 12:18:34 10° NNE daylight
27 Oct - 14:28:36 10° NNW 14:40:40 18° NNE 14:51:12 10° ENE daylight
27 Oct - 16:44:43 10° NW 17:01:30 42° NNE 17:12:23 10° E daylight
27 Oct - 19:03:17 10° WNW 19:18:15 77° SW 19:26:25 10° SE daylight
27 Oct - 21:26:18 10° WSW 21:32:11 18° SW 21:36:31 10° S visible
28 Oct - 04:14:21 10° SSW 04:18:33 30° SE 04:24:40 10° E visible
28 Oct - 06:25:54 10° WSW 06:32:01 50° NNW 06:42:43 10° NE visible
28 Oct - 08:42:24 10° WNW 08:49:09 19° NNW 08:58:19 10° NNE daylight
28 Oct - 11:09:44 10° N 11:11:12 10° N 11:12:42 10° N daylight
28 Oct - 13:27:28 10° NNW 13:36:54 15° NNE 13:45:58 10° NE daylight
28 Oct - 15:42:52 10° NNW 15:59:19 33° NNE 16:11:20 10° E daylight
28 Oct - 18:00:26 10° NW 18:17:34 78° NE 18:27:14 10° ESE daylight
28 Oct - 20:21:54 10° W 20:32:20 32° SW 20:38:47 10° SSE daylight
29 Oct - 03:16:54 10° S 03:19:13 14° SE 03:21:55 10° ESE night (unlit)
29 Oct - 05:26:46 10° WSW 05:32:03 77° NNW 05:41:13 10° NE visible
29 Oct - 07:41:23 10° WNW 07:47:42 23° NNW 07:56:58 10° NNE visible
29 Oct - 10:05:07 10° NNW 10:07:43 11° N 10:10:30 10° N daylight
29 Oct - 12:27:07 10° N 12:32:42 12° NNE 12:38:27 10° NNE daylight
29 Oct - 14:41:22 10° NNW 14:56:34 26° NNE 15:09:06 10° ENE daylight
29 Oct - 16:57:57 10° NW 17:16:15 59° NNE 17:27:30 10° ESE daylight
29 Oct - 19:18:01 10° WNW 19:32:15 52° SW 19:40:22 10° SE daylight
29 Oct - 21:44:46 10° SW 21:46:39 11° SSW 21:48:22 10° SSW visible
30 Oct - 04:28:02 10° SW 04:32:34 60° SE 04:39:46 10° ENE visible
30 Oct - 06:41:09 10° W 06:46:52 29° NNW 06:55:50 10° NNE visible
30 Oct - 09:01:18 10° NNW 09:05:04 12° NNW 09:09:23 10° N daylight
30 Oct - 13:40:21 10° NNW 13:53:18 20° NNE 14:05:18 10° ENE daylight
30 Oct - 15:55:52 10° NW 16:14:20 46° NNE 16:27:05 10° E daylight
30 Oct - 18:14:33 10° WNW 18:31:45 76° SW 18:41:29 10° SE daylight
30 Oct - 20:38:23 10° W 20:46:29 21° SW 20:52:08 10° SSE daylight
31 Oct - 03:29:42 10° SSW 03:33:22 28° SE 03:38:13 10° E night (unlit)
31 Oct - 05:41:30 10° W 05:46:34 41° NNW 05:54:52 10° NE visible
31 Oct - 07:58:52 10° NW 08:03:12 14° NNW 08:08:36 10° N visible
31 Oct - 12:40:02 10° N 12:49:36 15° NNE 12:59:19 10° NE daylight
31 Oct - 14:54:15 10° NNW 15:11:52 36° NNE 15:25:44 10° E daylight
31 Oct - 17:11:36 10° NW 17:30:38 82° NE 17:42:05 10° ESE daylight
31 Oct - 19:33:34 10° W 19:46:15 36° SW 19:54:03 10° SSE daylight
01 Nov - 02:32:11 10° S 02:34:03 13° SSE 02:36:03 10° ESE night (unlit)
01 Nov - 04:42:16 10° WSW 04:46:48 66° NNW 04:54:01 10° NE visible
01 Nov - 06:57:32 10° WNW 07:02:02 17° NNW 07:08:04 10° NNE visible
01 Nov - 11:41:24 10° N 11:45:39 11° NNE 11:50:06 10° NNE daylight
01 Nov - 13:53:11 10° NNW 14:09:00 28° NNE 14:23:06 10° E daylight
01 Nov - 16:09:10 10° NW 16:28:55 64° NE 16:42:07 10° ESE daylight
01 Nov - 18:29:21 10° WNW 18:45:45 54° SW 18:55:25 10° SE daylight
01 Nov - 20:55:59 10° WSW 21:01:03 14° SSW 21:05:04 10° S visible
02 Nov - 03:43:24 10° SW 03:47:28 63° SE 03:53:14 10° ENE night (unlit)
02 Nov - 05:57:03 10° WNW 06:01:27 22° NNW 06:07:43 10° NNE visible
02 Nov - 12:52:45 10° NNW 13:05:46 21° NNE 13:18:44 10° ENE daylight
02 Nov - 15:07:20 10° NW 15:26:41 50° NNE 15:41:23 10° ESE daylight
02 Nov - 17:25:47 10° WNW 17:44:45 74° SW 17:56:16 10° SE daylight
02 Nov - 19:50:02 10° W 20:00:31 25° SW 20:07:34 10° SSE daylight
